This is the latest recevied weather packets stored in our database for station/object WY1B. If no packets are shown the sender has not sent any weather packets the latest 10 day(s).
| Time | Temp. | Humidity | Pressure | Rain* | Wind** | Luminosity | Snow |
|---|---|---|---|---|---|---|---|
| 1787754365 | 32.78° C | 27% | 1004 hPa | 0 mm | - | 48 W/m² | - |
| 1787754061 | 32.78° C | 29% | 1003.9 hPa | 0 mm | - | 44 W/m² | - |
| 1787753760 | 32.78° C | 30% | 1003.9 hPa | 0 mm | - | 61 W/m² | - |
| 1787753458 | 32.22° C | 31% | 1003.9 hPa | 0 mm | - | 83 W/m² | - |
| 1787753158 | 31.67° C | 32% | 1004 hPa | 0 mm | - | 39 W/m² | - |
| 1787752853 | 31.67° C | 33% | 1003.9 hPa | 0 mm | - | 37 W/m² | - |
| 1787752551 | 31.67° C | 33% | 1003.9 hPa | 0 mm | - | 35 W/m² | - |
| 1787752248 | 31.67° C | 33% | 1003.8 hPa | 0 mm | - | 33 W/m² | - |
| 1787751946 | 31.11° C | 32% | 1003.6 hPa | 0 mm | - | 29 W/m² | - |
| 1787751642 | 31.11° C | 32% | 1003.6 hPa | 0 mm | - | 26 W/m² | - |
| 1787751342 | 31.11° C | 33% | 1003.5 hPa | 0 mm | - | 24 W/m² | - |
| 1787751037 | 31.11° C | 33% | 1003.3 hPa | 0 mm | - | 21 W/m² | - |
| 1787750732 | 31.11° C | 33% | 1003.3 hPa | 0 mm | - | 18 W/m² | - |
| 1787750432 | 30.56° C | 32% | 1003.1 hPa | 0 mm | - | 16 W/m² | - |
| 1787750127 | 30.56° C | 34% | 1003.2 hPa | 0 mm | - | 12 W/m² | - |
| 1787749824 | 30° C | 35% | 1003.2 hPa | 0 mm | - | 9 W/m² | - |
| 1787749519 | 30.56° C | 36% | 1003.2 hPa | 0 mm | - | 6 W/m² | - |
| 1787749214 | 30.56° C | 37% | 1003 hPa | 0 mm | - | 4 W/m² | - |
| 1787748910 | 30.56° C | 35% | 1003 hPa | 0 mm | - | 2 W/m² | - |
| 1787748609 | 30.56° C | 35% | 1003.1 hPa | 0 mm | - | 1 W/m² | - |
| 1787748305 | 30.56° C | 35% | 1002.7 hPa | 0 mm | - | 0 W/m² | - |
| 1787748001 | 30.56° C | 36% | 1002.9 hPa | 0 mm | - | 0 W/m² | - |
| 1787747701 | 31.11° C | 34% | 1002.7 hPa | 0 mm | - | 0 W/m² | - |
| 1787747400 | 31.11° C | 33% | 1002.9 hPa | 0 mm | - | 0 W/m² | - |
| 1787747096 | 31.11° C | 33% | 1002.7 hPa | 0 mm | - | 0 W/m² | - |
* Rain latest hour (hover to see other rain measurements)
** Current wind speed in m/s (hover to see current wind gust speed)